EW1895 Weather Reports


Display with metric or nautical units.
time (UTC)temp
F
wind
direction
speed
MPH
gust
MPH
rain 1hr
in
rain 24hr
in
rain mn
in
humidity
%
barometer
mb
20260509221555 75 185 0.0 0.0 0.00 0.00 0.00 49 1008.8
20260509220056 76 162 0.0 3.0 0.00 0.00 0.00 47 1008.7
20260509214555 76 107 0.0 2.0 0.00 0.00 0.00 46 1008.6
20260509213154 77 271 0.0 0.0 0.00 0.00 0.00 46 1008.6
20260509211554 78 272 0.0 3.0 0.00 0.00 0.00 44 1008.5
20260509210105 79 278 0.0 2.0 0.00 0.00 0.00 43 1008.4
20260509204557 78 17 0.0 3.0 0.00 0.00 0.00 43 1008.4
20260509203152 79 240 0.0 2.0 0.00 0.00 0.00 43 1008.3
20260509201552 80 292 1.0 7.0 0.00 0.00 0.00 41 1008.2
20260509200105 80 319 0.0 3.0 0.00 0.00 0.00 40 1008.4
20260509194549 78 209 0.0 5.0 0.00 0.00 0.00 43 1008.5
20260509193147 78 178 0.0 3.0 0.00 0.00 0.00 47 1008.7
20260509191546 77 130 0.0 2.0 0.00 0.00 0.00 47 1008.9
20260509190053 78 36 0.0 1.0 0.00 0.00 0.00 47 1009.3
20260509184607 79 360 0.0 4.0 0.00 0.00 0.00 43 1009.4
20260509183141 79 214 0.0 8.0 0.00 0.00 0.00 45 1009.6
20260509181544 77 306 1.0 4.0 0.00 0.00 0.00 50 1009.8
20260509180033 77 187 1.0 5.0 0.00 0.00 0.00 48 1010.2
20260509174536 76 108 0.0 4.0 0.00 0.00 0.00 48 1010.2
20260509173132 78 125 2.0 8.0 0.00 0.00 0.00 47 1010.4
20260509171533 77 256 0.0 7.0 0.00 0.00 0.00 47 1010.2
20260509170030 77 316 0.0 6.0 0.00 0.00 0.00 47 1010.5
20260509164526 76 309 1.0 5.0 0.00 0.00 0.00 50 1010.7
20260509163124 73 273 0.0 5.0 0.00 0.00 0.00 52 1010.9
20260509161521 74 267 0.0 7.0 0.00 0.00 0.00 52 1010.8
20260509160019 72 80 0.0 5.0 0.00 0.00 0.00 54 1011.0
20260509154515 72 284 0.0 7.0 0.00 0.00 0.00 53 1011.2
20260509153113 71 248 0.0 7.0 0.00 0.00 0.00 58 1011.5
20260509151511 69 202 0.0 5.0 0.00 0.00 0.00 60 1011.6
20260509150009 68 270 0.0 4.0 0.00 0.00 0.00 63 1011.9
20260509144507 67 274 0.0 5.0 0.00 0.00 0.00 66 1012.0
20260509143105 65 154 0.0 7.0 0.00 0.00 0.00 69 1012.5
20260509141503 65 210 0.0 2.0 0.00 0.00 0.00 70 1012.6
20260509140002 64 178 0.0 5.0 0.00 0.00 0.00 72 1012.7
20260509134502 63 140 0.0 0.0 0.00 0.00 0.00 74 1012.8
20260509133102 61 126 0.0 4.0 0.00 0.00 0.00 75 1013.1
20260509131503 61 265 0.0 0.0 0.00 0.00 0.00 76 1013.1
20260509130106 60 237 0.0 4.0 0.00 0.00 0.00 79 1013.1
20260509124603 59 92 0.0 3.0 0.00 0.00 0.00 81 1013.0
20260509123103 57 192 0.0 3.0 0.00 0.00 0.00 83 1012.9
20260509121559 56 115 0.0 4.0 0.00 0.00 0.00 85 1013.1
20260509114557 53 179 0.0 0.0 0.00 0.00 0.00 88 1012.9
20260509113120 52 214 0.0 1.0 0.00 0.00 0.00 89 1013.1
20260509111604 51 224 0.0 2.0 0.00 0.00 0.00 89 1012.9
20260509110058 51 238 0.0 1.0 0.00 0.00 0.00 89 1013.0
20260509104600 50 166 0.0 1.0 0.00 0.00 0.00 88 1012.9
20260509103059 50 160 0.0 0.0 0.00 0.00 0.00 87 1012.8
20260509101556 50 160 0.0 0.0 0.00 0.00 0.00 86 1012.8
20260509100110 50 160 0.0 0.0 0.00 0.00 0.00 86 1012.8
20260509094555 50 197 0.0 0.0 0.00 0.00 0.00 85 1012.9
20260509093053 50 239 0.0 0.0 0.00 0.00 0.00 83 1012.9
20260509091603 51 240 0.0 0.0 0.00 0.00 0.00 83 1013.0
20260509090052 51 240 0.0 0.0 0.00 0.00 0.00 81 1013.0
20260509084548 51 240 0.0 0.0 0.00 0.00 0.00 80 1013.0
20260509083048 52 240 0.0 0.0 0.00 0.00 0.00 79 1012.7
20260509081556 52 239 0.0 0.0 0.00 0.00 0.00 78 1012.8
20260509080050 52 240 0.0 1.0 0.00 0.00 0.00 78 1012.8
20260509074545 52 213 0.0 1.0 0.00 0.00 0.00 77 1012.8
20260509073048 52 200 0.0 0.0 0.00 0.00 0.00 77 1013.2
20260509071546 52 200 0.0 0.0 0.00 0.00 0.00 75 1013.4
20260509070042 52 200 0.0 0.0 0.00 0.00 0.00 74 1013.5
20260509064541 53 200 0.0 0.0 0.00 0.00 0.00 74 1013.7
20260509063041 53 223 0.0 0.0 0.00 0.00 0.00 73 1014.0
20260509061550 53 223 0.0 0.0 0.00 0.00 0.00 71 1014.0
20260509060036 54 147 0.0 0.0 0.00 0.00 0.00 69 1014.1
20260509054540 54 148 0.0 0.0 0.00 0.00 0.00 69 1014.2
20260509053050 55 150 0.0 0.0 0.00 0.00 0.00 67 1014.0
20260509051531 55 150 0.0 0.0 0.00 0.00 0.00 67 1013.9
20260509050031 55 150 0.0 0.0 0.00 0.00 0.00 66 1013.9
20260509044532 56 150 0.0 0.0 0.00 0.00 0.00 64 1013.7
20260509043026 56 150 0.0 0.0 0.00 0.00 0.00 64 1013.7
20260509041525 56 187 0.0 0.0 0.00 0.00 0.00 63 1013.8
20260509040023 56 186 0.0 0.0 0.00 0.00 0.00 61 1013.8
20260509034521 57 186 0.0 0.0 0.00 0.00 0.00 61 1014.3
20260509033021 57 196 0.0 1.0 0.00 0.00 0.00 60 1014.3
20260509031518 57 194 0.0 0.0 0.00 0.00 0.00 60 1014.3
20260509030017 58 198 0.0 0.0 0.00 0.00 0.00 57 1014.2
20260509024518 58 200 0.0 0.0 0.00 0.00 0.00 56 1014.2
20260509023015 58 191 0.0 1.0 0.00 0.00 0.00 55 1014.2
20260509021513 58 138 0.0 0.0 0.00 0.00 0.00 56 1014.3
20260509020010 58 265 0.0 0.0 0.00 0.00 0.00 56 1014.0
20260509014508 59 265 0.0 0.0 0.00 0.00 0.00 57 1014.0
20260509013005 59 265 0.0 0.0 0.00 0.00 0.00 54 1013.8
20260509011504 59 265 0.0 0.0 0.00 0.00 0.00 56 1013.8
20260509010100 60 266 0.0 2.0 0.00 0.00 0.00 53 1013.6
20260509004557 61 187 0.0 0.0 0.00 0.00 0.00 51 1013.6
20260509003053 63 187 0.0 0.0 0.00 0.00 0.00 47 1013.5
20260509001550 63 187 0.0 0.0 0.00 0.00 0.00 46 1013.5
20260509000046 64 187 0.0 0.0 0.00 0.00 0.00 44 1013.5
20260508234546 65 187 0.0 0.0 0.00 0.00 0.00 41 1013.2
20260508233040 67 178 0.0 0.0 0.00 0.00 0.00 40 1013.1
20260508231552 67 182 0.0 2.0 0.00 0.00 0.00 38 1012.8
20260508230046 68 157 0.0 4.0 0.00 0.00 0.00 39 1012.9
20260508224534 68 348 0.0 1.0 0.00 0.00 0.00 38 1012.8
20260508223039 69 148 0.0 3.0 0.00 0.00 0.00 35 1012.9